Time,TemperatureF,DewpointF,PressureIn,WindDirection,WindDirectionDegrees,WindSpeedMPH,WindSpeedGustMPH,Humidity,HourlyPrecipIn,Conditions,Clouds,dailyrainin,SoftwareType,DateUTC
2013-04-20 00:00:00,48.7,47.0,30.21,South,187,3.0,11.0,94,0.05,,---,0.00,VWS V14.01,2013-04-20 07:00:00,
2013-04-20 00:01:00,48.8,47.2,30.21,SSW,200,4.0,11.0,94,0.05,,---,0.55,VWS V14.01,2013-04-20 07:01:00,
2013-04-20 00:06:00,48.8,46.9,30.22,SE,134,0.0,8.0,93,0.04,,---,0.00,VWS V14.01,2013-04-20 07:06:00,
2013-04-20 00:11:00,48.8,46.9,30.22,SSW,199,2.0,8.0,93,0.04,,---,0.00,VWS V14.01,2013-04-20 07:11:00,
2013-04-20 00:15:00,48.8,46.9,30.22,SSW,207,9.0,9.0,93,0.04,,---,0.00,VWS V14.01,2013-04-20 07:15:00,
2013-04-20 00:16:00,48.8,46.9,30.22,SSW,212,4.0,8.0,93,0.04,,---,0.00,VWS V14.01,2013-04-20 07:16:00,
2013-04-20 00:21:00,48.8,46.9,30.22,SSE,152,1.0,9.0,93,0.02,,---,0.00,VWS V14.01,2013-04-20 07:21:00,
2013-04-20 00:26:00,48.8,46.6,30.22,WSW,254,5.0,9.0,92,0.02,,---,0.00,VWS V14.01,2013-04-20 07:26:00,
2013-04-20 00:30:00,48.8,46.6,30.22,SW,231,2.0,9.0,92,0.02,,---,0.00,VWS V14.01,2013-04-20 07:30:00,
2013-04-20 00:31:00,48.8,46.6,30.22,SW,231,3.0,9.0,92,0.02,,---,0.00,VWS V14.01,2013-04-20 07:31:00,
2013-04-20 00:36:00,48.8,46.6,30.22,SSW,194,3.0,7.0,92,0.01,,---,0.00,VWS V14.01,2013-04-20 07:36:00,
2013-04-20 00:41:00,48.9,46.7,30.22,SSE,151,2.0,7.0,92,0.01,,---,0.00,VWS V14.01,2013-04-20 07:41:00,
2013-04-20 00:45:00,48.8,46.6,30.22,SW,217,0.0,8.0,92,0.01,,---,0.00,VWS V14.01,2013-04-20 07:45:00,
2013-04-20 00:46:00,48.9,46.7,30.22,SW,224,6.0,8.0,92,0.01,,---,0.00,VWS V14.01,2013-04-20 07:46:00,
2013-04-20 00:51:00,48.8,46.6,30.22,South,178,1.0,6.0,92,0.00,,---,0.00,VWS V14.01,2013-04-20 07:51:00,
2013-04-20 00:56:00,48.8,46.6,30.23,South,185,3.0,10.0,92,0.00,,---,0.00,VWS V14.01,2013-04-20 07:56:00,
2013-04-20 01:00:00,48.9,46.7,30.23,SSE,148,4.0,10.0,92,0.00,,---,0.00,VWS V14.01,2013-04-20 08:00:00,
2013-04-20 01:01:00,48.9,46.7,30.23,SSE,159,4.0,10.0,92,0.00,,---,0.00,VWS V14.01,2013-04-20 08:01:00,
2013-04-20 01:05:00,48.8,46.3,30.23,SSE,157,2.0,6.0,91,0.00,,---,0.00,VWS V14.01,2013-04-20 08:05:00,
2013-04-20 01:10:00,48.8,46.3,30.23,South,170,4.0,8.0,91,0.00,,---,0.00,VWS V14.01,2013-04-20 08:10:00,
2013-04-20 01:15:00,48.8,46.3,30.23,SSE,148,1.0,8.0,91,0.00,,---,0.00,VWS V14.01,2013-04-20 08:15:00,
2013-04-20 01:20:00,48.8,46.3,30.23,SW,215,1.0,9.0,91,0.01,,---,0.01,VWS V14.01,2013-04-20 08:20:00,
2013-04-20 01:25:00,48.8,46.6,30.23,SSE,161,1.0,11.0,92,0.01,,---,0.01,VWS V14.01,2013-04-20 08:25:00,
2013-04-20 01:30:00,48.7,46.2,30.23,SSW,200,3.0,11.0,91,0.01,,---,0.01,VWS V14.01,2013-04-20 08:30:00,
2013-04-20 01:35:00,48.8,46.6,30.23,SSE,153,6.0,10.0,92,0.01,,---,0.01,VWS V14.01,2013-04-20 08:35:00,
2013-04-20 01:40:00,48.7,46.5,30.23,SSE,166,5.0,10.0,92,0.01,,---,0.01,VWS V14.01,2013-04-20 08:40:00,
2013-04-20 01:45:00,48.6,46.4,30.23,SSW,202,5.0,10.0,92,0.01,,---,0.01,VWS V14.01,2013-04-20 08:45:00,
2013-04-20 01:50:00,48.6,46.4,30.22,SSW,211,1.0,7.0,92,0.01,,---,0.01,VWS V14.01,2013-04-20 08:50:00,
2013-04-20 01:55:00,48.6,46.4,30.22,SSE,166,7.0,9.0,92,0.01,,---,0.01,VWS V14.01,2013-04-20 08:55:00,
2013-04-20 02:00:00,48.6,46.4,30.22,SSW,192,2.0,9.0,92,0.01,,---,0.01,VWS V14.01,2013-04-20 09:00:00,
2013-04-20 02:05:00,48.6,46.1,30.22,SW,219,2.0,8.0,91,0.01,,---,0.01,VWS V14.01,2013-04-20 09:05:00,
2013-04-20 02:10:00,48.6,46.1,30.22,SE,145,2.0,8.0,91,0.01,,---,0.01,VWS V14.01,2013-04-20 09:10:00,
2013-04-20 02:15:00,48.6,46.1,30.22,SW,216,2.0,8.0,91,0.01,,---,0.01,VWS V14.01,2013-04-20 09:15:00,
2013-04-20 02:20:00,48.5,46.0,30.22,SSE,163,5.0,8.0,91,0.01,,---,0.01,VWS V14.01,2013-04-20 09:20:00,
2013-04-20 02:25:00,48.4,45.9,30.22,South,189,2.0,13.0,91,0.01,,---,0.01,VWS V14.01,2013-04-20 09:25:00,
2013-04-20 02:30:00,48.4,45.9,30.22,South,187,5.0,13.0,91,0.01,,---,0.01,VWS V14.01,2013-04-20 09:30:00,
2013-04-20 02:35:00,48.3,45.8,30.22,South,184,1.0,11.0,91,0.00,,---,0.01,VWS V14.01,2013-04-20 09:35:00,
2013-04-20 02:40:00,48.3,45.8,30.22,South,175,1.0,11.0,91,0.00,,---,0.01,VWS V14.01,2013-04-20 09:40:00,
2013-04-20 02:45:00,48.3,45.8,30.23,West,263,1.0,11.0,91,0.00,,---,0.01,VWS V14.01,2013-04-20 09:45:00,
2013-04-20 02:50:00,48.2,45.7,30.23,South,169,2.0,6.0,91,0.00,,---,0.01,VWS V14.01,2013-04-20 09:50:00,
2013-04-20 02:55:00,48.2,45.7,30.23,SSE,159,1.0,8.0,91,0.00,,---,0.01,VWS V14.01,2013-04-20 09:55:00,
2013-04-20 03:00:00,48.1,45.6,30.23,SE,129,2.0,8.0,91,0.00,,---,0.01,VWS V14.01,2013-04-20 10:00:00,
2013-04-20 03:05:00,48.1,45.6,30.23,SSW,200,3.0,10.0,91,0.00,,---,0.01,VWS V14.01,2013-04-20 10:05:00,
2013-04-20 03:10:00,48.1,45.6,30.23,SSE,157,2.0,10.0,91,0.00,,---,0.01,VWS V14.01,2013-04-20 10:10:00,
2013-04-20 03:15:00,48.1,45.6,30.23,SSE,155,0.0,10.0,91,0.00,,---,0.01,VWS V14.01,2013-04-20 10:15:00,
2013-04-20 03:20:00,48.1,45.6,30.22,South,182,4.0,8.0,91,0.00,,---,0.01,VWS V14.01,2013-04-20 10:20:00,
2013-04-20 03:25:00,48.0,45.2,30.22,South,183,3.0,10.0,90,0.00,,---,0.01,VWS V14.01,2013-04-20 10:25:00,
2013-04-20 03:30:00,47.9,45.1,30.23,South,180,7.0,10.0,90,0.00,,---,0.01,VWS V14.01,2013-04-20 10:30:00,
2013-04-20 03:35:00,47.9,45.1,30.23,South,176,4.0,8.0,90,0.00,,---,0.01,VWS V14.01,2013-04-20 10:35:00,
2013-04-20 03:40:00,47.9,45.1,30.23,SSE,159,5.0,12.0,90,0.00,,---,0.01,VWS V14.01,2013-04-20 10:40:00,
2013-04-20 03:45:00,47.8,45.0,30.23,SSE,154,7.0,12.0,90,0.00,,---,0.01,VWS V14.01,2013-04-20 10:45:00,
2013-04-20 03:50:00,47.8,45.3,30.23,SSE,167,7.0,9.0,91,0.00,,---,0.01,VWS V14.01,2013-04-20 10:50:00,
2013-04-20 03:55:00,47.8,45.0,30.23,South,176,2.0,10.0,90,0.00,,---,0.01,VWS V14.01,2013-04-20 10:55:00,
2013-04-20 04:00:00,47.7,44.9,30.23,SE,144,2.0,10.0,90,0.00,,---,0.01,VWS V14.01,2013-04-20 11:00:00,
2013-04-20 04:05:00,47.7,45.2,30.23,South,178,10.0,10.0,91,0.00,,---,0.01,VWS V14.01,2013-04-20 11:05:00,
2013-04-20 04:10:00,47.7,44.9,30.23,SE,139,1.0,10.0,90,0.00,,---,0.01,VWS V14.01,2013-04-20 11:10:00,
2013-04-20 04:15:00,47.8,45.0,30.24,SW,226,2.0,10.0,90,0.00,,---,0.01,VWS V14.01,2013-04-20 11:15:00,
2013-04-20 04:20:00,47.8,45.0,30.23,East,83,4.0,5.0,90,0.00,,---,0.01,VWS V14.01,2013-04-20 11:20:00,
2013-04-20 04:25:00,47.7,44.9,30.24,SE,133,1.0,5.0,90,0.00,,---,0.01,VWS V14.01,2013-04-20 11:25:00,
2013-04-20 04:30:00,47.8,45.0,30.24,SSE,165,4.0,9.0,90,0.00,,---,0.01,VWS V14.01,2013-04-20 11:30:00,
2013-04-20 04:35:00,47.7,44.9,30.24,South,172,6.0,7.0,90,0.00,,---,0.01,VWS V14.01,2013-04-20 11:35:00,
2013-04-20 04:40:00,47.7,44.9,30.24,ESE,113,2.0,8.0,90,0.00,,---,0.01,VWS V14.01,2013-04-20 11:40:00,
2013-04-20 04:45:00,47.7,44.9,30.24,South,176,2.0,8.0,90,0.00,,---,0.01,VWS V14.01,2013-04-20 11:45:00,
2013-04-20 04:50:00,47.7,44.9,30.25,South,175,4.0,5.0,90,0.00,,---,0.01,VWS V14.01,2013-04-20 11:50:00,
2013-04-20 04:55:00,47.7,44.9,30.25,SE,142,2.0,9.0,90,0.00,,---,0.01,VWS V14.01,2013-04-20 11:55:00,
2013-04-20 05:00:00,47.7,44.9,30.25,South,186,0.0,9.0,90,0.00,,---,0.01,VWS V14.01,2013-04-20 12:00:00,
2013-04-20 05:05:00,47.7,44.9,30.25,SSE,154,6.0,7.0,90,0.00,,---,0.01,VWS V14.01,2013-04-20 12:05:00,
2013-04-20 05:10:00,47.6,44.8,30.25,South,182,5.0,7.0,90,0.00,,---,0.01,VWS V14.01,2013-04-20 12:10:00,
2013-04-20 05:15:00,47.6,44.8,30.24,South,182,1.0,8.0,90,0.00,,---,0.01,VWS V14.01,2013-04-20 12:15:00,
2013-04-20 05:20:00,47.6,44.8,30.25,WSW,244,4.0,10.0,90,0.00,,---,0.01,VWS V14.01,2013-04-20 12:20:00,
2013-04-20 05:25:00,47.6,44.8,30.25,South,190,3.0,10.0,90,0.00,,---,0.01,VWS V14.01,2013-04-20 12:25:00,
2013-04-20 05:30:00,47.4,44.6,30.24,SSE,157,6.0,14.0,90,0.00,,---,0.01,VWS V14.01,2013-04-20 12:30:00,
2013-04-20 05:35:00,47.4,44.6,30.24,South,173,1.0,8.0,90,0.00,,---,0.01,VWS V14.01,2013-04-20 12:35:00,
2013-04-20 05:40:00,47.4,44.6,30.24,SSW,197,3.0,8.0,90,0.00,,---,0.01,VWS V14.01,2013-04-20 12:40:00,
2013-04-20 05:45:00,47.4,44.6,30.25,SSE,163,4.0,10.0,90,0.00,,---,0.01,VWS V14.01,2013-04-20 12:45:00,
2013-04-20 05:50:00,47.4,44.6,30.25,South,181,3.0,9.0,90,0.00,,---,0.01,VWS V14.01,2013-04-20 12:50:00,
2013-04-20 05:55:00,47.3,44.5,30.25,WSW,253,3.0,12.0,90,0.00,,---,0.01,VWS V14.01,2013-04-20 12:55:00,
2013-04-20 06:00:00,47.3,44.5,30.25,SE,146,2.0,12.0,90,0.00,,---,0.01,VWS V14.01,2013-04-20 13:00:00,
2013-04-20 06:05:00,47.3,44.5,30.25,WSW,256,6.0,6.0,90,0.00,,---,0.01,VWS V14.01,2013-04-20 13:05:00,
2013-04-20 06:10:00,47.3,44.5,30.25,SSW,194,6.0,9.0,90,0.00,,---,0.01,VWS V14.01,2013-04-20 13:10:00,
2013-04-20 06:15:00,47.2,44.4,30.26,SSE,165,1.0,9.0,90,0.00,,---,0.01,VWS V14.01,2013-04-20 13:15:00,
2013-04-20 06:20:00,47.3,44.5,30.25,SE,145,5.0,9.0,90,0.00,,---,0.01,VWS V14.01,2013-04-20 13:20:00,
2013-04-20 06:25:00,47.3,44.5,30.26,SSE,153,2.0,9.0,90,0.00,,---,0.01,VWS V14.01,2013-04-20 13:25:00,
2013-04-20 06:30:00,47.3,44.5,30.25,SSE,153,4.0,11.0,90,0.00,,---,0.01,VWS V14.01,2013-04-20 13:30:00,
2013-04-20 06:35:00,47.3,44.5,30.25,SSE,148,2.0,8.0,90,0.00,,---,0.01,VWS V14.01,2013-04-20 13:35:00,
2013-04-20 06:40:00,47.3,44.5,30.26,SSE,165,6.0,8.0,90,0.00,,---,0.01,VWS V14.01,2013-04-20 13:40:00,
2013-04-20 06:45:00,47.3,44.2,30.26,South,169,5.0,8.0,89,0.00,,---,0.01,VWS V14.01,2013-04-20 13:45:00,
2013-04-20 06:50:00,47.2,44.4,30.26,SSE,167,4.0,9.0,90,0.00,,---,0.01,VWS V14.01,2013-04-20 13:50:00,
2013-04-20 06:55:00,47.3,44.2,30.26,SSW,198,4.0,15.0,89,0.00,,---,0.01,VWS V14.01,2013-04-20 13:55:00,
2013-04-20 07:00:00,47.2,44.1,30.26,South,190,9.0,15.0,89,0.00,,---,0.01,VWS V14.01,2013-04-20 14:00:00,
2013-04-20 07:05:00,47.2,44.1,30.26,SSW,208,3.0,7.0,89,0.00,,---,0.01,VWS V14.01,2013-04-20 14:05:00,
2013-04-20 07:10:00,47.3,44.2,30.26,SSW,196,2.0,7.0,89,0.00,,---,0.01,VWS V14.01,2013-04-20 14:10:00,
2013-04-20 07:15:00,47.3,44.2,30.26,South,170,2.0,11.0,89,0.00,,---,0.01,VWS V14.01,2013-04-20 14:15:00,
2013-04-20 07:20:00,47.3,44.2,30.26,South,174,5.0,10.0,89,0.00,,---,0.01,VWS V14.01,2013-04-20 14:20:00,
2013-04-20 07:25:00,47.3,44.2,30.26,SSE,154,2.0,10.0,89,0.00,,---,0.01,VWS V14.01,2013-04-20 14:25:00,
2013-04-20 07:30:00,47.3,44.2,30.26,SSE,168,2.0,12.0,89,0.00,,---,0.01,VWS V14.01,2013-04-20 14:30:00,
2013-04-20 07:35:00,47.3,44.2,30.26,SSE,159,5.0,11.0,89,0.00,,---,0.01,VWS V14.01,2013-04-20 14:35:00,
2013-04-20 07:40:00,47.3,44.2,30.26,SE,130,8.0,11.0,89,0.00,,---,0.01,VWS V14.01,2013-04-20 14:40:00,
2013-04-20 07:45:00,47.4,44.3,30.26,West,265,4.0,11.0,89,0.00,,---,0.01,VWS V14.01,2013-04-20 14:45:00,
2013-04-20 07:50:00,47.4,44.3,30.26,South,190,0.0,8.0,89,0.00,,---,0.01,VWS V14.01,2013-04-20 14:50:00,
2013-04-20 07:55:00,47.4,44.3,30.27,SW,225,1.0,8.0,89,0.00,,---,0.01,VWS V14.01,2013-04-20 14:55:00,
2013-04-20 08:00:00,47.5,44.4,30.27,WSW,237,1.0,8.0,89,0.00,,---,0.01,VWS V14.01,2013-04-20 15:00:00,
2013-04-20 08:05:00,47.5,44.4,30.27,NNW,337,1.0,5.0,89,0.00,,---,0.01,VWS V14.01,2013-04-20 15:05:00,
2013-04-20 08:10:00,47.5,44.4,30.27,NNW,335,2.0,5.0,89,0.00,,---,0.01,VWS V14.01,2013-04-20 15:10:00,
2013-04-20 08:15:00,47.6,44.5,30.27,NNW,344,4.0,5.0,89,0.00,,---,0.01,VWS V14.01,2013-04-20 15:15:00,
2013-04-20 08:20:00,47.6,44.5,30.27,SE,143,1.0,5.0,89,0.00,,---,0.01,VWS V14.01,2013-04-20 15:20:00,
2013-04-20 08:25:00,47.6,44.5,30.27,SSE,148,0.0,6.0,89,0.00,,---,0.01,VWS V14.01,2013-04-20 15:25:00,
2013-04-20 08:30:00,47.7,44.6,30.27,WNW,290,1.0,6.0,89,0.00,,---,0.01,VWS V14.01,2013-04-20 15:30:00,
2013-04-20 08:35:00,47.8,44.7,30.27,SE,134,4.0,6.0,89,0.00,,---,0.01,VWS V14.01,2013-04-20 15:35:00,
2013-04-20 08:40:00,47.7,44.3,30.27,WNW,296,4.0,8.0,88,0.00,,---,0.01,VWS V14.01,2013-04-20 15:40:00,
2013-04-20 08:45:00,47.7,44.6,30.27,WSW,240,1.0,8.0,89,0.00,,---,0.01,VWS V14.01,2013-04-20 15:45:00,
2013-04-20 08:50:00,47.8,44.7,30.27,North,5,2.0,5.0,89,0.00,,---,0.01,VWS V14.01,2013-04-20 15:50:00,
2013-04-20 08:55:00,47.8,44.7,30.27,NNW,336,0.0,5.0,89,0.00,,---,0.01,VWS V14.01,2013-04-20 15:55:00,
2013-04-20 09:00:00,48.0,44.6,30.27,West,259,0.0,5.0,88,0.00,,---,0.01,VWS V14.01,2013-04-20 16:00:00,
2013-04-20 09:05:00,48.1,44.7,30.27,WSW,249,0.0,5.0,88,0.00,,---,0.01,VWS V14.01,2013-04-20 16:05:00,
2013-04-20 09:10:00,48.2,44.8,30.28,WNW,298,3.0,5.0,88,0.00,,---,0.01,VWS V14.01,2013-04-20 16:10:00,
2013-04-20 09:15:00,48.1,44.7,30.28,WNW,297,2.0,5.0,88,0.00,,---,0.01,VWS V14.01,2013-04-20 16:15:00,
2013-04-20 09:20:00,48.2,44.8,30.28,WNW,300,5.0,5.0,88,0.00,,---,0.01,VWS V14.01,2013-04-20 16:20:00,
2013-04-20 09:25:00,48.3,44.9,30.28,WNW,290,4.0,5.0,88,0.00,,---,0.01,VWS V14.01,2013-04-20 16:25:00,
2013-04-20 09:30:00,48.4,45.0,30.28,West,278,0.0,5.0,88,0.00,,---,0.01,VWS V14.01,2013-04-20 16:30:00,
2013-04-20 09:35:00,48.5,45.1,30.28,West,278,2.0,3.0,88,0.00,,---,0.01,VWS V14.01,2013-04-20 16:35:00,
2013-04-20 09:40:00,48.5,45.1,30.28,West,276,1.0,3.0,88,0.00,,---,0.01,VWS V14.01,2013-04-20 16:40:00,
2013-04-20 09:45:00,48.6,45.2,30.28,WNW,298,0.0,5.0,88,0.00,,---,0.01,VWS V14.01,2013-04-20 16:45:00,
2013-04-20 09:50:00,48.8,45.1,30.28,WNW,294,1.0,5.0,87,0.00,,---,0.01,VWS V14.01,2013-04-20 16:50:00,
2013-04-20 09:55:00,48.9,45.2,30.28,WNW,288,3.0,5.0,87,0.00,,---,0.01,VWS V14.01,2013-04-20 16:55:00,
2013-04-20 10:00:00,48.9,45.2,30.28,SSW,207,0.0,5.0,87,0.00,,---,0.01,VWS V14.01,2013-04-20 17:00:00,
2013-04-20 10:05:00,49.1,45.4,30.28,SSW,207,0.0,3.0,87,0.00,,---,0.01,VWS V14.01,2013-04-20 17:05:00,
2013-04-20 10:10:00,49.2,45.5,30.28,SW,219,2.0,4.0,87,0.00,,---,0.01,VWS V14.01,2013-04-20 17:10:00,
2013-04-20 10:15:00,49.2,45.5,30.28,WSW,254,1.0,5.0,87,0.00,,---,0.01,VWS V14.01,2013-04-20 17:15:00,
2013-04-20 10:20:00,49.2,45.5,30.28,WSW,254,0.0,3.0,87,0.00,,---,0.01,VWS V14.01,2013-04-20 17:20:00,
2013-04-20 10:25:00,49.4,45.7,30.28,WSW,242,1.0,4.0,87,0.00,,---,0.01,VWS V14.01,2013-04-20 17:25:00,
2013-04-20 10:30:00,49.5,45.8,30.29,WSW,249,0.0,4.0,87,0.00,,---,0.01,VWS V14.01,2013-04-20 17:30:00,
2013-04-20 10:35:00,49.6,45.9,30.29,WSW,254,0.0,4.0,87,0.00,,---,0.01,VWS V14.01,2013-04-20 17:35:00,
2013-04-20 10:40:00,49.8,45.8,30.29,South,170,1.0,6.0,86,0.00,,---,0.01,VWS V14.01,2013-04-20 17:40:00,
2013-04-20 10:45:00,49.9,45.9,30.29,South,170,1.0,6.0,86,0.00,,---,0.01,VWS V14.01,2013-04-20 17:45:00,
2013-04-20 10:50:00,50.1,46.1,30.29,South,185,3.0,4.0,86,0.00,,---,0.01,VWS V14.01,2013-04-20 17:50:00,
2013-04-20 10:55:00,50.2,45.9,30.29,South,188,2.0,4.0,85,0.00,,---,0.01,VWS V14.01,2013-04-20 17:55:00,
2013-04-20 11:00:00,50.3,46.0,30.29,South,188,2.0,4.0,85,0.00,,---,0.01,VWS V14.01,2013-04-20 18:00:00,
2013-04-20 11:05:00,50.4,45.8,30.29,South,169,6.0,8.0,84,0.00,,---,0.01,VWS V14.01,2013-04-20 18:05:00,
2013-04-20 11:10:00,50.4,46.1,30.29,South,177,0.0,8.0,85,0.00,,---,0.01,VWS V14.01,2013-04-20 18:10:00,
2013-04-20 11:15:00,50.6,46.0,30.30,SSW,213,1.0,8.0,84,0.00,,---,0.01,VWS V14.01,2013-04-20 18:15:00,
2013-04-20 11:20:00,50.9,46.6,30.30,WNW,282,0.0,4.0,85,0.00,,---,0.01,VWS V14.01,2013-04-20 18:20:00,
2013-04-20 11:25:00,51.0,46.3,30.30,South,179,0.0,6.0,84,0.00,,---,0.01,VWS V14.01,2013-04-20 18:25:00,
2013-04-20 11:30:00,51.2,46.8,30.30,WNW,294,2.0,6.0,85,0.00,,---,0.01,VWS V14.01,2013-04-20 18:30:00,
2013-04-20 11:35:00,51.3,47.0,30.30,NW,310,1.0,4.0,85,0.00,,---,0.01,VWS V14.01,2013-04-20 18:35:00,
2013-04-20 11:40:00,51.8,46.8,30.30,WSW,244,2.0,4.0,83,0.00,,---,0.01,VWS V14.01,2013-04-20 18:40:00,
2013-04-20 11:45:00,51.9,46.6,30.30,SSE,151,0.0,6.0,82,0.00,,---,0.01,VWS V14.01,2013-04-20 18:45:00,
2013-04-20 11:50:00,52.1,47.1,30.30,SSW,194,2.0,4.0,83,0.00,,---,0.01,VWS V14.01,2013-04-20 18:50:00,
2013-04-20 11:55:00,52.4,46.8,30.30,West,276,1.0,6.0,81,0.00,,---,0.01,VWS V14.01,2013-04-20 18:55:00,
2013-04-20 12:00:00,52.5,46.8,30.30,NW,308,1.0,6.0,81,0.00,,---,0.01,VWS V14.01,2013-04-20 19:00:00,
2013-04-20 12:05:00,52.5,46.8,30.30,WNW,300,3.0,5.0,81,0.00,,---,0.01,VWS V14.01,2013-04-20 19:05:00,
2013-04-20 12:10:00,52.3,46.3,30.30,West,275,2.0,5.0,80,0.00,,---,0.01,VWS V14.01,2013-04-20 19:10:00,
2013-04-20 12:15:00,52.2,46.5,30.30,WSW,250,2.0,5.0,81,0.00,,---,0.01,VWS V14.01,2013-04-20 19:15:00,
2013-04-20 12:20:00,52.4,46.8,30.30,WSW,253,3.0,6.0,81,0.00,,---,0.01,VWS V14.01,2013-04-20 19:20:00,
2013-04-20 12:25:00,52.4,46.8,30.30,West,277,1.0,6.0,81,0.00,,---,0.01,VWS V14.01,2013-04-20 19:25:00,
2013-04-20 12:30:00,52.7,47.0,30.30,West,263,0.0,6.0,81,0.00,,---,0.01,VWS V14.01,2013-04-20 19:30:00,
2013-04-20 12:35:00,52.9,46.9,30.29,SE,127,1.0,5.0,80,0.00,,---,0.01,VWS V14.01,2013-04-20 19:35:00,
2013-04-20 12:40:00,53.0,47.0,30.29,WNW,296,5.0,5.0,80,0.00,,---,0.01,VWS V14.01,2013-04-20 19:40:00,
2013-04-20 12:45:00,52.7,46.7,30.29,West,275,1.0,7.0,80,0.00,,---,0.01,VWS V14.01,2013-04-20 19:45:00,
2013-04-20 12:50:00,53.0,47.3,30.29,West,275,0.0,3.0,81,0.00,,---,0.01,VWS V14.01,2013-04-20 19:50:00,
2013-04-20 12:55:00,53.5,47.5,30.29,NW,309,1.0,5.0,80,0.00,,---,0.01,VWS V14.01,2013-04-20 19:55:00,
2013-04-20 13:00:00,53.9,47.5,30.29,WNW,292,4.0,6.0,79,0.00,,---,0.01,VWS V14.01,2013-04-20 20:00:00,
2013-04-20 13:05:00,54.2,47.8,30.29,West,267,2.0,7.0,79,0.00,,---,0.01,VWS V14.01,2013-04-20 20:05:00,
2013-04-20 13:10:00,54.0,47.0,30.29,NNW,333,1.0,7.0,77,0.00,,---,0.01,VWS V14.01,2013-04-20 20:10:00,
2013-04-20 13:15:00,54.2,47.5,30.28,West,277,5.0,7.0,78,0.00,,---,0.01,VWS V14.01,2013-04-20 20:15:00,
2013-04-20 13:20:00,53.2,46.5,30.28,NW,315,4.0,9.0,78,0.00,,---,0.01,VWS V14.01,2013-04-20 20:20:00,
2013-04-20 13:25:00,53.0,46.7,30.28,West,265,3.0,10.0,79,0.00,,---,0.01,VWS V14.01,2013-04-20 20:25:00,
2013-04-20 13:30:00,53.2,46.9,30.28,West,279,3.0,10.0,79,0.00,,---,0.01,VWS V14.01,2013-04-20 20:30:00,
2013-04-20 13:35:00,53.6,46.9,30.28,West,267,0.0,4.0,78,0.00,,---,0.01,VWS V14.01,2013-04-20 20:35:00,
2013-04-20 13:40:00,54.1,47.1,30.28,SSE,166,2.0,8.0,77,0.00,,---,0.01,VWS V14.01,2013-04-20 20:40:00,
2013-04-20 13:45:00,54.5,46.8,30.28,NW,325,1.0,8.0,75,0.00,,---,0.01,VWS V14.01,2013-04-20 20:45:00,
2013-04-20 13:50:00,54.8,47.0,30.28,SW,236,2.0,6.0,75,0.00,,---,0.01,VWS V14.01,2013-04-20 20:50:00,
2013-04-20 13:55:00,55.0,46.9,30.27,SSW,210,2.0,6.0,74,0.00,,---,0.01,VWS V14.01,2013-04-20 20:55:00,
2013-04-20 14:00:00,55.2,47.1,30.27,SSE,147,2.0,8.0,74,0.00,,---,0.01,VWS V14.01,2013-04-20 21:00:00,
2013-04-20 14:05:00,55.3,46.8,30.27,SSW,196,4.0,4.0,73,0.00,,---,0.01,VWS V14.01,2013-04-20 21:05:00,
2013-04-20 14:10:00,55.2,47.1,30.27,NW,313,1.0,4.0,74,0.00,,---,0.01,VWS V14.01,2013-04-20 21:10:00,
2013-04-20 14:15:00,55.2,47.1,30.27,NW,317,1.0,5.0,74,0.00,,---,0.01,VWS V14.01,2013-04-20 21:15:00,
2013-04-20 14:20:00,55.3,46.8,30.27,WNW,290,1.0,4.0,73,0.00,,---,0.01,VWS V14.01,2013-04-20 21:20:00,
2013-04-20 14:25:00,55.3,46.8,30.27,East,101,4.0,11.0,73,0.00,,---,0.01,VWS V14.01,2013-04-20 21:25:00,
2013-04-20 14:30:00,55.5,47.0,30.27,SSE,153,5.0,11.0,73,0.00,,---,0.01,VWS V14.01,2013-04-20 21:30:00,
2013-04-20 14:35:00,55.7,46.8,30.27,WNW,298,3.0,7.0,72,0.00,,---,0.01,VWS V14.01,2013-04-20 21:35:00,
2013-04-20 14:40:00,55.8,47.3,30.27,ENE,78,2.0,7.0,73,0.00,,---,0.01,VWS V14.01,2013-04-20 21:40:00,
2013-04-20 14:45:00,56.2,46.9,30.27,West,271,2.0,7.0,71,0.00,,---,0.01,VWS V14.01,2013-04-20 21:45:00,
2013-04-20 14:50:00,56.2,46.9,30.27,SW,236,4.0,8.0,71,0.00,,---,0.01,VWS V14.01,2013-04-20 21:50:00,
2013-04-20 14:55:00,56.1,47.2,30.27,NW,317,5.0,8.0,72,0.00,,---,0.01,VWS V14.01,2013-04-20 21:55:00,
2013-04-20 15:00:00,55.9,47.4,30.27,NW,304,2.0,8.0,73,0.00,,---,0.01,VWS V14.01,2013-04-20 22:00:00,
2013-04-20 15:05:00,55.4,46.9,30.27,WSW,256,0.0,9.0,73,0.00,,---,0.01,VWS V14.01,2013-04-20 22:05:00,
2013-04-20 15:10:00,55.7,46.8,30.27,NW,321,4.0,9.0,72,0.00,,---,0.01,VWS V14.01,2013-04-20 22:10:00,
2013-04-20 15:15:00,55.5,46.6,30.27,West,265,3.0,9.0,72,0.00,,---,0.01,VWS V14.01,2013-04-20 22:15:00,
2013-04-20 15:20:00,55.5,46.6,30.27,West,259,0.0,4.0,72,0.00,,---,0.01,VWS V14.01,2013-04-20 22:20:00,
2013-04-20 15:25:00,55.7,47.2,30.27,SSE,150,0.0,5.0,73,0.00,,---,0.01,VWS V14.01,2013-04-20 22:25:00,
2013-04-20 15:30:00,55.5,46.6,30.27,South,172,5.0,7.0,72,0.01,,---,0.02,VWS V14.01,2013-04-20 22:30:00,
2013-04-20 15:35:00,55.0,47.2,30.27,South,177,0.0,6.0,75,0.01,,---,0.02,VWS V14.01,2013-04-20 22:35:00,
2013-04-20 15:40:00,55.1,47.7,30.27,South,191,1.0,6.0,76,0.01,,---,0.02,VWS V14.01,2013-04-20 22:40:00,
2013-04-20 15:45:00,54.9,47.5,30.27,SSW,193,2.0,6.0,76,0.02,,---,0.03,VWS V14.01,2013-04-20 22:45:00,
2013-04-20 15:50:00,54.6,47.2,30.27,South,191,3.0,5.0,76,0.02,,---,0.03,VWS V14.01,2013-04-20 22:50:00,
2013-04-20 15:55:00,54.5,47.5,30.27,SW,226,1.0,5.0,77,0.02,,---,0.03,VWS V14.01,2013-04-20 22:55:00,
2013-04-20 16:00:00,54.4,48.0,30.27,WSW,239,1.0,5.0,79,0.03,,---,0.04,VWS V14.01,2013-04-20 23:00:00,
2013-04-20 16:05:00,54.2,47.8,30.27,WSW,239,0.0,2.0,79,0.03,,---,0.04,VWS V14.01,2013-04-20 23:05:00,
2013-04-20 16:10:00,54.4,48.4,30.27,WSW,239,1.0,2.0,80,0.03,,---,0.04,VWS V14.01,2013-04-20 23:10:00,
2013-04-20 16:15:00,54.2,48.2,30.26,SSE,155,0.0,5.0,80,0.04,,---,0.05,VWS V14.01,2013-04-20 23:15:00,
2013-04-20 16:20:00,54.2,49.2,30.26,ESE,119,5.0,6.0,83,0.04,,---,0.05,VWS V14.01,2013-04-20 23:20:00,
2013-04-20 16:25:00,53.9,48.2,30.26,ESE,111,2.0,7.0,81,0.04,,---,0.05,VWS V14.01,2013-04-20 23:25:00,
2013-04-20 16:30:00,53.8,48.4,30.26,East,98,0.0,7.0,82,0.04,,---,0.05,VWS V14.01,2013-04-20 23:30:00,
2013-04-20 16:35:00,53.8,48.8,30.26,ESE,111,2.0,5.0,83,0.03,,---,0.05,VWS V14.01,2013-04-20 23:35:00,
2013-04-20 16:40:00,53.8,48.8,30.26,ESE,120,2.0,6.0,83,0.03,,---,0.05,VWS V14.01,2013-04-20 23:40:00,
2013-04-20 16:45:00,53.8,48.4,30.26,SE,135,2.0,6.0,82,0.03,,---,0.05,VWS V14.01,2013-04-20 23:45:00,
2013-04-20 16:50:00,53.9,49.2,30.25,SE,135,2.0,2.0,84,0.02,,---,0.05,VWS V14.01,2013-04-20 23:50:00,
2013-04-20 16:55:00,54.0,49.3,30.25,SE,134,1.0,4.0,84,0.02,,---,0.05,VWS V14.01,2013-04-20 23:55:00,
2013-04-20 17:00:00,53.9,49.2,30.25,SE,134,1.0,4.0,84,0.02,,---,0.05,VWS V14.01,2013-04-21 00:00:00,
2013-04-20 17:05:00,53.8,49.1,30.25,South,177,1.0,4.0,84,0.01,,---,0.05,VWS V14.01,2013-04-21 00:05:00,
2013-04-20 17:10:00,53.6,48.6,30.25,South,176,0.0,5.0,83,0.02,,---,0.06,VWS V14.01,2013-04-21 00:10:00,
2013-04-20 17:15:00,53.5,48.8,30.25,South,176,1.0,5.0,84,0.02,,---,0.06,VWS V14.01,2013-04-21 00:15:00,
2013-04-20 17:20:00,53.6,49.2,30.25,South,176,1.0,2.0,85,0.01,,---,0.06,VWS V14.01,2013-04-21 00:20:00,
2013-04-20 17:25:00,53.6,48.9,30.25,South,176,0.0,2.0,84,0.02,,---,0.07,VWS V14.01,2013-04-21 00:25:00,
2013-04-20 17:30:00,53.7,49.6,30.25,South,176,1.0,2.0,86,0.02,,---,0.07,VWS V14.01,2013-04-21 00:30:00,
2013-04-20 17:35:00,53.5,48.8,30.25,WNW,294,3.0,5.0,84,0.02,,---,0.07,VWS V14.01,2013-04-21 00:35:00,
2013-04-20 17:40:00,53.5,49.7,30.25,WNW,294,1.0,5.0,87,0.03,,---,0.08,VWS V14.01,2013-04-21 00:40:00,
2013-04-20 17:45:00,53.5,50.0,30.25,WNW,294,2.0,5.0,88,0.03,,---,0.08,VWS V14.01,2013-04-21 00:45:00,
2013-04-20 17:50:00,53.2,50.0,30.24,WNW,294,0.0,3.0,89,0.03,,---,0.08,VWS V14.01,2013-04-21 00:50:00,
2013-04-20 17:55:00,53.0,50.2,30.24,WNW,294,0.0,3.0,90,0.03,,---,0.08,VWS V14.01,2013-04-21 00:55:00,
2013-04-20 18:00:00,52.8,50.0,30.25,NNW,331,3.0,4.0,90,0.03,,---,0.08,VWS V14.01,2013-04-21 01:00:00,
2013-04-20 18:04:00,52.5,49.4,30.25,NNW,331,1.0,4.0,89,0.03,,---,0.08,VWS V14.01,2013-04-21 01:04:00,
2013-04-20 18:09:00,52.4,48.7,30.25,West,267,1.0,4.0,87,0.03,,---,0.08,VWS V14.01,2013-04-21 01:09:00,
2013-04-20 18:14:00,52.7,48.6,30.25,South,180,1.0,4.0,86,0.03,,---,0.08,VWS V14.01,2013-04-21 01:14:00,
2013-04-20 18:15:00,52.8,48.1,30.25,SSE,163,4.0,5.0,84,0.03,,---,0.08,VWS V14.01,2013-04-21 01:15:00,
2013-04-20 18:19:00,52.9,47.9,30.25,South,191,3.0,6.0,83,0.02,,---,0.08,VWS V14.01,2013-04-21 01:19:00,
2013-04-20 18:24:00,53.1,47.4,30.25,SE,138,1.0,6.0,81,0.02,,---,0.08,VWS V14.01,2013-04-21 01:24:00,
2013-04-20 18:29:00,53.1,47.4,30.25,WSW,250,0.0,6.0,81,0.02,,---,0.08,VWS V14.01,2013-04-21 01:29:00,
2013-04-20 18:30:00,53.2,47.5,30.25,West,262,0.0,6.0,81,0.02,,---,0.08,VWS V14.01,2013-04-21 01:30:00,
2013-04-20 18:34:00,53.2,47.9,30.25,NW,314,1.0,5.0,82,0.01,,---,0.08,VWS V14.01,2013-04-21 01:34:00,
2013-04-20 18:39:00,53.1,47.8,30.25,West,259,2.0,5.0,82,0.01,,---,0.08,VWS V14.01,2013-04-21 01:39:00,
2013-04-20 18:44:00,53.1,47.8,30.24,WSW,245,1.0,5.0,82,0.01,,---,0.08,VWS V14.01,2013-04-21 01:44:00,
2013-04-20 18:45:00,53.1,47.8,30.24,SW,230,1.0,5.0,82,0.01,,---,0.08,VWS V14.01,2013-04-21 01:45:00,
2013-04-20 18:49:00,53.0,47.7,30.24,SW,230,0.0,2.0,82,0.00,,---,0.08,VWS V14.01,2013-04-21 01:49:00,
2013-04-20 18:54:00,52.8,47.1,30.24,West,280,2.0,5.0,81,0.00,,---,0.08,VWS V14.01,2013-04-21 01:54:00,
2013-04-20 18:59:00,52.7,47.4,30.24,SSE,155,0.0,5.0,82,0.00,,---,0.08,VWS V14.01,2013-04-21 01:59:00,
2013-04-20 19:00:00,52.6,46.9,30.24,SE,145,0.0,5.0,81,0.00,,---,0.08,VWS V14.01,2013-04-21 02:00:00,
2013-04-20 19:04:00,52.5,47.2,30.24,East,82,0.0,6.0,82,0.00,,---,0.08,VWS V14.01,2013-04-21 02:04:00,
2013-04-20 19:09:00,52.4,46.8,30.24,WNW,290,2.0,6.0,81,0.00,,---,0.08,VWS V14.01,2013-04-21 02:09:00,
2013-04-20 19:14:00,52.3,46.7,30.24,WNW,286,2.0,6.0,81,0.00,,---,0.08,VWS V14.01,2013-04-21 02:14:00,
2013-04-20 19:15:00,52.3,46.7,30.24,SSE,163,0.0,7.0,81,0.00,,---,0.08,VWS V14.01,2013-04-21 02:15:00,
2013-04-20 19:19:00,52.2,46.9,30.24,WNW,290,1.0,4.0,82,0.00,,---,0.08,VWS V14.01,2013-04-21 02:19:00,
2013-04-20 19:24:00,52.2,46.5,30.25,SSE,161,4.0,8.0,81,0.00,,---,0.08,VWS V14.01,2013-04-21 02:24:00,
2013-04-20 19:29:00,52.1,46.5,30.25,ESE,117,0.0,9.0,81,0.00,,---,0.08,VWS V14.01,2013-04-21 02:29:00,
2013-04-20 19:30:00,52.1,46.5,30.25,East,88,1.0,9.0,81,0.00,,---,0.08,VWS V14.01,2013-04-21 02:30:00,
2013-04-20 19:34:00,52.1,46.5,30.25,SSE,153,2.0,5.0,81,0.00,,---,0.08,VWS V14.01,2013-04-21 02:34:00,
2013-04-20 19:39:00,52.0,46.4,30.25,SSW,204,1.0,6.0,81,0.00,,---,0.08,VWS V14.01,2013-04-21 02:39:00,
2013-04-20 19:44:00,51.9,46.3,30.25,WSW,258,2.0,6.0,81,0.00,,---,0.08,VWS V14.01,2013-04-21 02:44:00,
2013-04-20 19:45:00,51.9,46.6,30.25,North,5,2.0,6.0,82,0.00,,---,0.08,VWS V14.01,2013-04-21 02:45:00,
2013-04-20 19:49:00,51.8,46.8,30.25,SSE,152,4.0,6.0,83,0.00,,---,0.08,VWS V14.01,2013-04-21 02:49:00,
2013-04-20 19:54:00,51.7,46.7,30.25,NNE,17,0.0,6.0,83,0.00,,---,0.08,VWS V14.01,2013-04-21 02:54:00,
2013-04-20 19:59:00,51.5,46.8,30.25,SSE,151,5.0,9.0,84,0.00,,---,0.08,VWS V14.01,2013-04-21 02:59:00,
2013-04-20 20:00:00,51.4,46.7,30.25,SW,232,6.0,11.0,84,0.00,,---,0.08,VWS V14.01,2013-04-21 03:00:00,
2013-04-20 20:04:00,51.3,47.0,30.25,SSE,157,4.0,6.0,85,0.00,,---,0.08,VWS V14.01,2013-04-21 03:04:00,
2013-04-20 20:09:00,51.2,46.8,30.25,SSE,166,4.0,6.0,85,0.00,,---,0.08,VWS V14.01,2013-04-21 03:09:00,
2013-04-20 20:14:00,51.0,47.0,30.25,SSE,150,0.0,6.0,86,0.00,,---,0.08,VWS V14.01,2013-04-21 03:14:00,
2013-04-20 20:15:00,51.1,47.1,30.25,SE,127,5.0,6.0,86,0.00,,---,0.08,VWS V14.01,2013-04-21 03:15:00,
2013-04-20 20:19:00,51.0,47.0,30.25,SE,144,0.0,7.0,86,0.00,,---,0.08,VWS V14.01,2013-04-21 03:19:00,
2013-04-20 20:24:00,50.9,46.9,30.25,SE,143,0.0,9.0,86,0.00,,---,0.08,VWS V14.01,2013-04-21 03:24:00,
2013-04-20 20:29:00,50.9,47.2,30.25,SW,234,5.0,9.0,87,0.00,,---,0.08,VWS V14.01,2013-04-21 03:29:00,
2013-04-20 20:30:00,50.5,46.8,30.26,North,355,6.0,10.0,87,0.00,,---,0.08,VWS V14.01,2013-04-21 03:30:00,
2013-04-20 20:34:00,49.6,47.4,30.26,WNW,284,5.0,7.0,92,0.00,,---,0.08,VWS V14.01,2013-04-21 03:34:00,
2013-04-20 20:39:00,49.1,46.3,30.26,NNW,339,1.0,10.0,90,0.00,,---,0.08,VWS V14.01,2013-04-21 03:39:00,
2013-04-20 20:44:00,49.0,46.5,30.26,North,355,6.0,10.0,91,0.00,,---,0.08,VWS V14.01,2013-04-21 03:44:00,
2013-04-20 20:45:00,48.8,46.3,30.26,NNW,346,4.0,10.0,91,0.00,,---,0.08,VWS V14.01,2013-04-21 03:45:00,
2013-04-20 20:49:00,48.6,46.4,30.26,NNW,333,3.0,7.0,92,0.00,,---,0.08,VWS V14.01,2013-04-21 03:49:00,
2013-04-20 20:54:00,48.7,46.5,30.26,NE,36,0.0,7.0,92,0.01,,---,0.09,VWS V14.01,2013-04-21 03:54:00,
2013-04-20 20:59:00,48.7,46.8,30.26,East,79,3.0,7.0,93,0.01,,---,0.09,VWS V14.01,2013-04-21 03:59:00,
2013-04-20 21:00:00,48.7,46.8,30.27,East,79,2.0,7.0,93,0.01,,---,0.09,VWS V14.01,2013-04-21 04:00:00,
2013-04-20 21:01:00,48.7,46.8,30.27,East,79,2.0,7.0,93,0.01,,---,0.09,VWS V14.01,2013-04-21 04:01:00,
2013-04-20 21:06:00,48.7,46.5,30.27,East,80,3.0,3.0,92,0.02,,---,0.10,VWS V14.01,2013-04-21 04:06:00,
2013-04-20 21:11:00,48.5,46.3,30.27,East,94,2.0,5.0,92,0.03,,---,0.11,VWS V14.01,2013-04-21 04:11:00,
2013-04-20 21:15:00,48.2,46.3,30.27,NW,319,2.0,6.0,93,0.03,,---,0.11,VWS V14.01,2013-04-21 04:15:00,
2013-04-20 21:16:00,48.2,46.3,30.27,NW,319,3.0,6.0,93,0.03,,---,0.11,VWS V14.01,2013-04-21 04:16:00,
2013-04-20 21:21:00,48.2,46.6,30.27,North,10,3.0,4.0,94,0.03,,---,0.11,VWS V14.01,2013-04-21 04:21:00,
2013-04-20 21:26:00,48.0,46.4,30.27,NNW,332,2.0,9.0,94,0.03,,---,0.11,VWS V14.01,2013-04-21 04:26:00,
2013-04-20 21:30:00,47.9,46.3,30.27,North,355,0.0,9.0,94,0.03,,---,0.11,VWS V14.01,2013-04-21 04:30:00,
2013-04-20 21:31:00,47.9,46.3,30.27,North,355,0.0,9.0,94,0.03,,---,0.11,VWS V14.01,2013-04-21 04:31:00,
2013-04-20 21:36:00,48.0,46.6,30.27,North,355,0.0,1.0,95,0.03,,---,0.11,VWS V14.01,2013-04-21 04:36:00,
2013-04-20 21:41:00,48.2,46.8,30.27,North,355,2.0,2.0,95,0.03,,---,0.11,VWS V14.01,2013-04-21 04:41:00,
2013-04-20 21:45:00,48.1,46.7,30.28,North,355,0.0,2.0,95,0.03,,---,0.11,VWS V14.01,2013-04-21 04:45:00,
2013-04-20 21:46:00,48.1,46.7,30.28,North,355,0.0,2.0,95,0.03,,---,0.11,VWS V14.01,2013-04-21 04:46:00,
2013-04-20 21:51:00,48.1,46.7,30.28,North,355,1.0,3.0,95,0.03,,---,0.11,VWS V14.01,2013-04-21 04:51:00,
2013-04-20 21:56:00,48.0,46.6,30.28,North,355,4.0,4.0,95,0.03,,---,0.11,VWS V14.01,2013-04-21 04:56:00,
2013-04-20 22:00:00,47.9,46.5,30.28,NNE,31,2.0,4.0,95,0.03,,---,0.11,VWS V14.01,2013-04-21 05:00:00,
2013-04-20 22:01:00,47.9,46.5,30.28,NNE,20,2.0,4.0,95,0.03,,---,0.11,VWS V14.01,2013-04-21 05:01:00,
2013-04-20 22:06:00,48.1,46.7,30.28,NNE,31,0.0,3.0,95,0.02,,---,0.11,VWS V14.01,2013-04-21 05:06:00,
2013-04-20 22:11:00,48.2,47.9,30.28,SW,223,1.0,5.0,99,0.02,,---,0.11,VWS V14.01,2013-04-21 05:11:00,
2013-04-20 22:15:00,48.3,46.9,30.28,South,188,2.0,5.0,95,0.02,,---,0.11,VWS V14.01,2013-04-21 05:15:00,
2013-04-20 22:16:00,48.3,46.9,30.28,South,188,0.0,5.0,95,0.02,,---,0.11,VWS V14.01,2013-04-21 05:16:00,
2013-04-20 22:21:00,48.3,46.9,30.29,West,275,3.0,4.0,95,0.00,,---,0.11,VWS V14.01,2013-04-21 05:21:00,
2013-04-20 22:26:00,48.0,46.6,30.28,WSW,240,3.0,8.0,95,0.00,,---,0.11,VWS V14.01,2013-04-21 05:26:00,
2013-04-20 22:30:00,47.9,46.5,30.28,SW,234,3.0,8.0,95,0.00,,---,0.11,VWS V14.01,2013-04-21 05:30:00,
2013-04-20 22:31:00,48.0,46.6,30.28,West,269,4.0,8.0,95,0.00,,---,0.11,VWS V14.01,2013-04-21 05:31:00,
2013-04-20 22:36:00,47.9,46.8,30.28,WSW,257,4.0,5.0,96,0.00,,---,0.11,VWS V14.01,2013-04-21 05:36:00,
2013-04-20 22:41:00,47.9,46.8,30.28,WSW,251,1.0,6.0,96,0.00,,---,0.11,VWS V14.01,2013-04-21 05:41:00,
2013-04-20 22:45:00,47.9,46.8,30.28,WNW,292,2.0,6.0,96,0.00,,---,0.11,VWS V14.01,2013-04-21 05:45:00,
2013-04-20 22:46:00,47.9,46.8,30.28,WNW,292,1.0,6.0,96,0.00,,---,0.11,VWS V14.01,2013-04-21 05:46:00,
2013-04-20 22:51:00,47.9,46.8,30.29,West,266,2.0,4.0,96,0.00,,---,0.11,VWS V14.01,2013-04-21 05:51:00,
2013-04-20 22:56:00,47.9,46.5,30.29,SW,216,2.0,6.0,95,0.00,,---,0.11,VWS V14.01,2013-04-21 05:56:00,
2013-04-20 23:00:00,47.7,46.3,30.29,NW,324,4.0,7.0,95,0.01,,---,0.12,VWS V14.01,2013-04-21 06:00:00,
2013-04-20 23:01:00,47.8,46.4,30.29,WNW,298,6.0,7.0,95,0.01,,---,0.12,VWS V14.01,2013-04-21 06:01:00,
2013-04-20 23:06:00,47.7,46.1,30.29,NNE,17,4.0,4.0,94,0.01,,---,0.12,VWS V14.01,2013-04-21 06:06:00,
2013-04-20 23:11:00,47.6,46.0,30.29,NW,317,3.0,4.0,94,0.01,,---,0.12,VWS V14.01,2013-04-21 06:11:00,
2013-04-20 23:15:00,47.6,45.7,30.28,East,80,2.0,4.0,93,0.01,,---,0.12,VWS V14.01,2013-04-21 06:15:00,
2013-04-20 23:16:00,47.6,45.7,30.28,East,80,3.0,4.0,93,0.01,,---,0.12,VWS V14.01,2013-04-21 06:16:00,
2013-04-20 23:21:00,47.6,45.7,30.28,ESE,121,4.0,5.0,93,0.01,,---,0.12,VWS V14.01,2013-04-21 06:21:00,
2013-04-20 23:26:00,47.7,45.5,30.29,NNE,18,1.0,5.0,92,0.01,,---,0.12,VWS V14.01,2013-04-21 06:26:00,
2013-04-20 23:30:00,47.7,45.5,30.28,NNE,19,0.0,5.0,92,0.01,,---,0.12,VWS V14.01,2013-04-21 06:30:00,
2013-04-20 23:31:00,47.7,45.5,30.28,NNE,19,1.0,5.0,92,0.01,,---,0.12,VWS V14.01,2013-04-21 06:31:00,
2013-04-20 23:36:00,47.7,45.2,30.28,South,170,7.0,7.0,91,0.01,,---,0.12,VWS V14.01,2013-04-21 06:36:00,
2013-04-20 23:41:00,47.6,45.4,30.28,South,184,2.0,7.0,92,0.01,,---,0.12,VWS V14.01,2013-04-21 06:41:00,
2013-04-20 23:45:00,47.6,45.4,30.28,ESE,123,4.0,7.0,92,0.01,,---,0.12,VWS V14.01,2013-04-21 06:45:00,
2013-04-20 23:46:00,47.6,45.4,30.28,South,184,1.0,7.0,92,0.01,,---,0.12,VWS V14.01,2013-04-21 06:46:00,
2013-04-20 23:51:00,47.5,44.7,30.28,SE,140,4.0,9.0,90,0.01,,---,0.12,VWS V14.01,2013-04-21 06:51:00,
2013-04-20 23:56:00,47.4,44.6,30.28,WNW,288,2.0,13.0,90,0.01,,---,0.12,VWS V14.01,2013-04-21 06:56:00,